Time,TemperatureF,DewpointF,PressureIn,WindDirection,WindDirectionDegrees,WindSpeedMPH,WindSpeedGustMPH,Humidity,HourlyPrecipIn,Conditions,Clouds,dailyrainin,SoftwareType,DateUTC
2013-05-21 00:01:00,70.3,68.5,30.08,South,186,8.0,11.0,94,0.00,,---,0.00,VWS V14.00,2013-05-21 04:01:00,
2013-05-21 00:06:00,70.3,68.2,30.07,South,179,6.0,11.0,93,0.00,,---,0.00,VWS V14.00,2013-05-21 04:06:00,
2013-05-21 00:11:00,70.3,68.2,30.07,South,181,6.0,11.0,93,0.00,,---,0.00,VWS V14.00,2013-05-21 04:11:00,
2013-05-21 00:16:00,70.2,68.4,30.07,SSE,166,5.0,11.0,94,0.00,,---,0.00,VWS V14.00,2013-05-21 04:16:00,
2013-05-21 00:21:00,70.2,68.4,30.07,South,180,5.0,11.0,94,0.00,,---,0.00,VWS V14.00,2013-05-21 04:21:00,
2013-05-21 00:26:00,70.2,68.4,30.07,SSE,153,5.0,11.0,94,0.00,,---,0.00,VWS V14.00,2013-05-21 04:26:00,
2013-05-21 00:31:00,70.2,68.4,30.07,South,171,5.0,8.0,94,0.00,,---,0.00,VWS V14.00,2013-05-21 04:31:00,
2013-05-21 00:36:00,70.1,68.3,30.07,SSE,164,5.0,8.0,94,0.00,,---,0.00,VWS V14.00,2013-05-21 04:36:00,
2013-05-21 00:41:00,70.0,68.2,30.07,South,186,3.0,8.0,94,0.00,,---,0.00,VWS V14.00,2013-05-21 04:41:00,
2013-05-21 00:46:00,69.9,68.1,30.07,South,173,7.0,8.0,94,0.00,,---,0.00,VWS V14.00,2013-05-21 04:46:00,
2013-05-21 00:51:00,69.9,68.1,30.07,South,185,5.0,8.0,94,0.00,,---,0.00,VWS V14.00,2013-05-21 04:51:00,
2013-05-21 00:56:00,70.0,68.2,30.07,SSE,164,6.0,8.0,94,0.00,,---,0.00,VWS V14.00,2013-05-21 04:56:00,
2013-05-21 01:01:00,69.9,68.1,30.07,South,170,5.0,6.0,94,0.00,,---,0.00,VWS V14.00,2013-05-21 05:01:00,
2013-05-21 01:06:00,69.9,68.1,30.07,South,179,6.0,7.0,94,0.00,,---,0.00,VWS V14.00,2013-05-21 05:06:00,
2013-05-21 01:11:00,69.9,68.1,30.06,South,184,4.0,7.0,94,0.00,,---,0.00,VWS V14.00,2013-05-21 05:11:00,
2013-05-21 01:16:00,70.0,68.2,30.06,South,172,4.0,7.0,94,0.00,,---,0.00,VWS V14.00,2013-05-21 05:16:00,
2013-05-21 01:21:00,70.0,68.2,30.06,SSE,166,2.0,8.0,94,0.00,,---,0.00,VWS V14.00,2013-05-21 05:21:00,
2013-05-21 01:26:00,69.9,68.1,30.06,South,172,4.0,8.0,94,0.00,,---,0.00,VWS V14.00,2013-05-21 05:26:00,
2013-05-21 01:31:00,69.9,68.1,30.06,South,176,3.0,6.0,94,0.00,,---,0.00,VWS V14.00,2013-05-21 05:31:00,
2013-05-21 01:36:00,69.8,68.0,30.05,South,176,4.0,6.0,94,0.00,,---,0.00,VWS V14.00,2013-05-21 05:36:00,
2013-05-21 01:41:00,69.8,68.0,30.05,South,173,6.0,6.0,94,0.00,,---,0.00,VWS V14.00,2013-05-21 05:41:00,
2013-05-21 01:46:00,69.8,68.0,30.05,SSE,157,5.0,8.0,94,0.00,,---,0.00,VWS V14.00,2013-05-21 05:46:00,
2013-05-21 01:51:00,69.8,68.0,30.05,South,177,4.0,8.0,94,0.00,,---,0.00,VWS V14.00,2013-05-21 05:51:00,
2013-05-21 01:56:00,69.8,68.0,30.05,South,169,4.0,8.0,94,0.00,,---,0.00,VWS V14.00,2013-05-21 05:56:00,
2013-05-21 02:01:00,69.7,67.9,30.05,South,187,5.0,6.0,94,0.00,,---,0.00,VWS V14.00,2013-05-21 06:01:00,
2013-05-21 02:06:00,69.7,67.9,30.05,SSW,194,4.0,8.0,94,0.00,,---,0.00,VWS V14.00,2013-05-21 06:06:00,
2013-05-21 02:12:00,69.7,67.9,30.05,South,179,6.0,8.0,94,0.00,,---,0.00,VWS V14.00,2013-05-21 06:12:00,
2013-05-21 02:17:00,69.6,67.8,30.04,South,187,5.0,8.0,94,0.00,,---,0.00,VWS V14.00,2013-05-21 06:17:00,
2013-05-21 02:22:00,69.6,68.1,30.04,SSW,195,3.0,8.0,95,0.00,,---,0.00,VWS V14.00,2013-05-21 06:22:00,
2013-05-21 02:27:00,69.5,67.7,30.04,SSW,196,5.0,8.0,94,0.00,,---,0.00,VWS V14.00,2013-05-21 06:27:00,
2013-05-21 02:32:00,69.5,68.0,30.04,South,182,5.0,6.0,95,0.00,,---,0.00,VWS V14.00,2013-05-21 06:32:00,
2013-05-21 02:37:00,69.5,68.0,30.04,South,172,6.0,6.0,95,0.00,,---,0.00,VWS V14.00,2013-05-21 06:37:00,
2013-05-21 02:42:00,69.5,68.0,30.04,SSW,195,5.0,6.0,95,0.00,,---,0.00,VWS V14.00,2013-05-21 06:42:00,
2013-05-21 02:47:00,69.5,68.0,30.04,South,190,4.0,6.0,95,0.00,,---,0.00,VWS V14.00,2013-05-21 06:47:00,
2013-05-21 02:52:00,69.4,67.6,30.04,South,188,5.0,7.0,94,0.00,,---,0.00,VWS V14.00,2013-05-21 06:52:00,
2013-05-21 02:57:00,69.4,67.6,30.04,South,191,3.0,7.0,94,0.00,,---,0.00,VWS V14.00,2013-05-21 06:57:00,
2013-05-21 03:02:00,69.3,67.8,30.04,South,189,4.0,5.0,95,0.00,,---,0.00,VWS V14.00,2013-05-21 07:02:00,
2013-05-21 03:07:00,69.3,67.8,30.04,South,189,4.0,6.0,95,0.00,,---,0.00,VWS V14.00,2013-05-21 07:07:00,
2013-05-21 03:12:00,69.3,67.8,30.04,South,183,1.0,6.0,95,0.00,,---,0.00,VWS V14.00,2013-05-21 07:12:00,
2013-05-21 03:17:00,69.5,68.0,30.04,South,189,2.0,6.0,95,0.00,,---,0.00,VWS V14.00,2013-05-21 07:17:00,
2013-05-21 03:22:00,69.5,68.0,30.04,South,191,4.0,6.0,95,0.00,,---,0.00,VWS V14.00,2013-05-21 07:22:00,
2013-05-21 03:27:00,69.6,68.1,30.04,South,184,2.0,6.0,95,0.00,,---,0.00,VWS V14.00,2013-05-21 07:27:00,
2013-05-21 03:32:00,69.6,68.1,30.04,SSE,162,3.0,5.0,95,0.00,,---,0.00,VWS V14.00,2013-05-21 07:32:00,
2013-05-21 03:37:00,69.7,68.2,30.04,SSE,166,3.0,5.0,95,0.00,,---,0.00,VWS V14.00,2013-05-21 07:37:00,
2013-05-21 03:42:00,69.8,68.3,30.04,SSE,168,3.0,5.0,95,0.00,,---,0.00,VWS V14.00,2013-05-21 07:42:00,
2013-05-21 03:47:00,69.8,68.3,30.04,SSE,168,3.0,6.0,95,0.00,,---,0.00,VWS V14.00,2013-05-21 07:47:00,
2013-05-21 03:52:00,69.8,68.3,30.04,SSE,166,3.0,6.0,95,0.00,,---,0.00,VWS V14.00,2013-05-21 07:52:00,
2013-05-21 03:57:00,69.9,68.4,30.04,SSE,156,3.0,6.0,95,0.00,,---,0.00,VWS V14.00,2013-05-21 07:57:00,
2013-05-21 04:02:00,69.9,68.4,30.04,SSE,159,4.0,5.0,95,0.00,,---,0.00,VWS V14.00,2013-05-21 08:02:00,
2013-05-21 04:07:00,70.0,68.5,30.04,SE,146,4.0,6.0,95,0.00,,---,0.00,VWS V14.00,2013-05-21 08:07:00,
2013-05-21 04:12:00,70.1,68.6,30.04,SSE,164,2.0,6.0,95,0.00,,---,0.00,VWS V14.00,2013-05-21 08:12:00,
2013-05-21 04:17:00,70.1,68.6,30.04,SSE,160,4.0,6.0,95,0.00,,---,0.00,VWS V14.00,2013-05-21 08:17:00,
2013-05-21 04:22:00,70.1,68.6,30.04,SSE,155,2.0,6.0,95,0.00,,---,0.00,VWS V14.00,2013-05-21 08:22:00,
2013-05-21 04:27:00,70.1,68.6,30.04,South,172,5.0,6.0,95,0.00,,---,0.00,VWS V14.00,2013-05-21 08:27:00,
2013-05-21 04:32:00,70.1,68.6,30.04,South,175,0.0,3.0,95,0.00,,---,0.00,VWS V14.00,2013-05-21 08:32:00,
2013-05-21 04:37:00,70.1,68.6,30.04,SSE,152,0.0,4.0,95,0.00,,---,0.00,VWS V14.00,2013-05-21 08:37:00,
2013-05-21 04:42:00,70.2,68.7,30.04,SSE,158,4.0,4.0,95,0.00,,---,0.00,VWS V14.00,2013-05-21 08:42:00,
2013-05-21 04:47:00,70.2,68.7,30.05,SE,143,2.0,4.0,95,0.00,,---,0.00,VWS V14.00,2013-05-21 08:47:00,
2013-05-21 04:52:00,70.2,68.7,30.05,SSE,168,3.0,4.0,95,0.00,,---,0.00,VWS V14.00,2013-05-21 08:52:00,
2013-05-21 04:57:00,70.2,68.7,30.05,SSE,162,4.0,5.0,95,0.00,,---,0.00,VWS V14.00,2013-05-21 08:57:00,
2013-05-21 05:02:00,70.2,68.7,30.05,SSE,156,3.0,4.0,95,0.00,,---,0.00,VWS V14.00,2013-05-21 09:02:00,
2013-05-21 05:07:00,70.3,68.8,30.06,South,172,3.0,5.0,95,0.00,,---,0.00,VWS V14.00,2013-05-21 09:07:00,
2013-05-21 05:12:00,70.3,68.8,30.06,SSE,158,3.0,5.0,95,0.00,,---,0.00,VWS V14.00,2013-05-21 09:12:00,
2013-05-21 05:17:00,70.3,68.8,30.06,SSE,163,4.0,6.0,95,0.00,,---,0.00,VWS V14.00,2013-05-21 09:17:00,
2013-05-21 05:22:00,70.4,68.9,30.06,SSE,162,4.0,7.0,95,0.00,,---,0.00,VWS V14.00,2013-05-21 09:22:00,
2013-05-21 05:27:00,70.3,68.8,30.06,South,173,3.0,7.0,95,0.00,,---,0.00,VWS V14.00,2013-05-21 09:27:00,
2013-05-21 05:32:00,70.3,68.8,30.06,South,174,2.0,6.0,95,0.00,,---,0.00,VWS V14.00,2013-05-21 09:32:00,
2013-05-21 05:37:00,70.4,68.9,30.06,South,180,4.0,7.0,95,0.00,,---,0.00,VWS V14.00,2013-05-21 09:37:00,
2013-05-21 05:42:00,70.4,68.9,30.07,South,169,3.0,7.0,95,0.00,,---,0.00,VWS V14.00,2013-05-21 09:42:00,
2013-05-21 05:47:00,70.4,68.9,30.06,South,170,4.0,7.0,95,0.00,,---,0.00,VWS V14.00,2013-05-21 09:47:00,
2013-05-21 05:52:00,70.5,69.0,30.07,SSE,160,4.0,7.0,95,0.00,,---,0.00,VWS V14.00,2013-05-21 09:52:00,
2013-05-21 05:57:00,70.5,69.0,30.07,South,187,5.0,7.0,95,0.00,,---,0.00,VWS V14.00,2013-05-21 09:57:00,
2013-05-21 06:02:00,70.4,68.9,30.07,South,172,5.0,6.0,95,0.00,,---,0.00,VWS V14.00,2013-05-21 10:02:00,
2013-05-21 06:07:00,70.4,68.9,30.07,SSE,168,6.0,9.0,95,0.00,,---,0.00,VWS V14.00,2013-05-21 10:07:00,
2013-05-21 06:12:00,70.5,68.7,30.07,SSE,159,8.0,9.0,94,0.00,,---,0.00,VWS V14.00,2013-05-21 10:12:00,
2013-05-21 06:17:00,70.4,68.6,30.07,South,175,7.0,9.0,94,0.00,,---,0.00,VWS V14.00,2013-05-21 10:17:00,
2013-05-21 06:22:00,70.4,68.6,30.06,South,189,6.0,9.0,94,0.00,,---,0.00,VWS V14.00,2013-05-21 10:22:00,
2013-05-21 06:27:00,70.4,68.6,30.07,South,180,3.0,9.0,94,0.00,,---,0.00,VWS V14.00,2013-05-21 10:27:00,
2013-05-21 06:32:00,70.3,68.5,30.07,SSE,168,4.0,7.0,94,0.00,,---,0.00,VWS V14.00,2013-05-21 10:32:00,
2013-05-21 06:37:00,70.3,68.8,30.07,South,171,3.0,7.0,95,0.00,,---,0.00,VWS V14.00,2013-05-21 10:37:00,
2013-05-21 06:42:00,70.3,68.8,30.07,South,179,3.0,7.0,95,0.00,,---,0.00,VWS V14.00,2013-05-21 10:42:00,
2013-05-21 06:47:00,70.3,68.8,30.07,SSE,168,4.0,7.0,95,0.00,,---,0.00,VWS V14.00,2013-05-21 10:47:00,
2013-05-21 06:52:00,70.4,68.9,30.07,South,179,5.0,7.0,95,0.00,,---,0.00,VWS V14.00,2013-05-21 10:52:00,
2013-05-21 06:57:00,70.5,69.0,30.07,SSE,168,4.0,7.0,95,0.00,,---,0.00,VWS V14.00,2013-05-21 10:57:00,
2013-05-21 07:02:00,70.7,69.2,30.07,South,187,3.0,8.0,95,0.00,,---,0.00,VWS V14.00,2013-05-21 11:02:00,
2013-05-21 07:07:00,70.8,69.3,30.07,SSW,192,3.0,8.0,95,0.00,,---,0.00,VWS V14.00,2013-05-21 11:07:00,
2013-05-21 07:12:00,71.0,69.5,30.08,South,189,4.0,8.0,95,0.00,,---,0.00,VWS V14.00,2013-05-21 11:12:00,
2013-05-21 07:17:00,71.2,69.7,30.08,South,185,4.0,8.0,95,0.00,,---,0.00,VWS V14.00,2013-05-21 11:17:00,
2013-05-21 07:22:00,71.5,69.7,30.08,South,182,2.0,8.0,94,0.00,,---,0.00,VWS V14.00,2013-05-21 11:22:00,
2013-05-21 07:27:00,71.8,70.0,30.08,SSE,158,6.0,8.0,94,0.00,,---,0.00,VWS V14.00,2013-05-21 11:27:00,
2013-05-21 07:32:00,72.3,70.2,30.08,South,189,6.0,7.0,93,0.00,,---,0.00,VWS V14.00,2013-05-21 11:32:00,
2013-05-21 07:37:00,72.4,69.9,30.08,SSE,165,4.0,8.0,92,0.00,,---,0.00,VWS V14.00,2013-05-21 11:37:00,
2013-05-21 07:42:00,72.9,70.1,30.08,South,179,5.0,8.0,91,0.00,,---,0.00,VWS V14.00,2013-05-21 11:42:00,
2013-05-21 07:47:00,73.0,69.9,30.08,South,184,6.0,8.0,90,0.00,,---,0.00,VWS V14.00,2013-05-21 11:47:00,
2013-05-21 07:52:00,73.1,70.0,30.08,South,187,4.0,8.0,90,0.00,,---,0.00,VWS V14.00,2013-05-21 11:52:00,
2013-05-21 07:57:00,73.1,69.7,30.08,SSW,198,5.0,9.0,89,0.00,,---,0.00,VWS V14.00,2013-05-21 11:57:00,
2013-05-21 08:02:00,73.2,69.8,30.08,SSW,197,5.0,7.0,89,0.00,,---,0.00,VWS V14.00,2013-05-21 12:02:00,
2013-05-21 08:07:00,73.2,69.8,30.08,SW,214,7.0,10.0,89,0.00,,---,0.00,VWS V14.00,2013-05-21 12:07:00,
2013-05-21 08:12:00,73.3,69.9,30.09,SSW,201,3.0,10.0,89,0.00,,---,0.00,VWS V14.00,2013-05-21 12:12:00,
2013-05-21 08:17:00,73.3,69.9,30.09,SSW,196,4.0,10.0,89,0.00,,---,0.00,VWS V14.00,2013-05-21 12:17:00,
2013-05-21 08:22:00,73.3,69.5,30.09,SSW,199,6.0,10.0,88,0.00,,---,0.00,VWS V14.00,2013-05-21 12:22:00,
2013-05-21 08:27:00,73.5,70.1,30.09,South,185,7.0,10.0,89,0.00,,---,0.00,VWS V14.00,2013-05-21 12:27:00,
2013-05-21 08:32:00,73.6,69.8,30.09,SSW,197,6.0,8.0,88,0.00,,---,0.00,VWS V14.00,2013-05-21 12:32:00,
2013-05-21 08:37:00,73.7,69.9,30.09,SSW,208,6.0,9.0,88,0.00,,---,0.00,VWS V14.00,2013-05-21 12:37:00,
2013-05-21 08:42:00,73.7,69.9,30.09,South,184,9.0,9.0,88,0.00,,---,0.00,VWS V14.00,2013-05-21 12:42:00,
2013-05-21 08:47:00,73.7,69.6,30.09,SSW,195,5.0,9.0,87,0.00,,---,0.00,VWS V14.00,2013-05-21 12:47:00,
2013-05-21 08:52:00,73.9,69.8,30.09,South,178,7.0,9.0,87,0.00,,---,0.00,VWS V14.00,2013-05-21 12:52:00,
2013-05-21 08:57:00,74.2,70.1,30.09,SSE,166,4.0,11.0,87,0.00,,---,0.00,VWS V14.00,2013-05-21 12:57:00,
2013-05-21 09:02:00,74.3,69.8,30.09,South,185,5.0,9.0,86,0.00,,---,0.00,VWS V14.00,2013-05-21 13:02:00,
2013-05-21 09:07:00,74.2,69.8,30.09,SSW,194,8.0,10.0,86,0.00,,---,0.00,VWS V14.00,2013-05-21 13:07:00,
2013-05-21 09:12:00,74.0,69.9,30.09,SSW,192,6.0,11.0,87,0.00,,---,0.00,VWS V14.00,2013-05-21 13:12:00,
2013-05-21 09:17:00,73.8,69.7,30.09,SSW,192,9.0,12.0,87,0.00,,---,0.00,VWS V14.00,2013-05-21 13:17:00,
2013-05-21 09:22:00,73.4,69.3,30.09,South,182,6.0,12.0,87,0.00,,---,0.00,VWS V14.00,2013-05-21 13:22:00,
2013-05-21 09:27:00,73.2,69.4,30.09,South,173,5.0,12.0,88,0.00,,---,0.00,VWS V14.00,2013-05-21 13:27:00,
2013-05-21 09:32:00,73.9,70.1,30.09,South,177,5.0,8.0,88,0.00,,---,0.00,VWS V14.00,2013-05-21 13:32:00,
2013-05-21 09:37:00,74.9,70.8,30.09,SSE,150,5.0,9.0,87,0.00,,---,0.00,VWS V14.00,2013-05-21 13:37:00,
2013-05-21 09:42:00,75.4,70.6,30.09,SSE,156,7.0,11.0,85,0.00,,---,0.00,VWS V14.00,2013-05-21 13:42:00,
2013-05-21 09:47:00,75.6,70.8,30.09,South,179,7.0,11.0,85,0.00,,---,0.00,VWS V14.00,2013-05-21 13:47:00,
2013-05-21 09:52:00,75.8,70.6,30.09,SSW,208,5.0,11.0,84,0.00,,---,0.00,VWS V14.00,2013-05-21 13:52:00,
2013-05-21 09:57:00,76.1,70.9,30.08,SSW,199,4.0,11.0,84,0.00,,---,0.00,VWS V14.00,2013-05-21 13:57:00,
2013-05-21 10:02:00,76.0,70.8,30.08,SSW,207,8.0,10.0,84,0.00,,---,0.00,VWS V14.00,2013-05-21 14:02:00,
2013-05-21 10:07:00,76.3,71.8,30.08,SSW,206,9.0,10.0,86,0.00,,---,0.00,VWS V14.00,2013-05-21 14:07:00,
2013-05-21 10:12:00,76.6,70.7,30.08,SSE,164,4.0,12.0,82,0.00,,---,0.00,VWS V14.00,2013-05-21 14:12:00,
2013-05-21 10:17:00,76.3,70.8,30.08,South,180,7.0,12.0,83,0.00,,---,0.00,VWS V14.00,2013-05-21 14:17:00,
2013-05-21 10:22:00,76.3,71.1,30.08,South,183,6.0,12.0,84,0.00,,---,0.00,VWS V14.00,2013-05-21 14:22:00,
2013-05-21 10:27:00,76.1,70.9,30.08,South,186,3.0,12.0,84,0.00,,---,0.00,VWS V14.00,2013-05-21 14:27:00,
2013-05-21 10:32:00,76.1,71.3,30.08,South,189,6.0,8.0,85,0.00,,---,0.00,VWS V14.00,2013-05-21 14:32:00,
2013-05-21 10:37:00,75.7,70.9,30.08,SSW,212,9.0,11.0,85,0.00,,---,0.00,VWS V14.00,2013-05-21 14:37:00,
2013-05-21 10:42:00,75.9,70.4,30.08,SW,235,10.0,11.0,83,0.00,,---,0.00,VWS V14.00,2013-05-21 14:42:00,
2013-05-21 10:47:00,76.2,71.0,30.08,SW,227,8.0,11.0,84,0.00,,---,0.00,VWS V14.00,2013-05-21 14:47:00,
2013-05-21 10:52:00,76.4,70.5,30.09,SW,216,8.0,13.0,82,0.00,,---,0.00,VWS V14.00,2013-05-21 14:52:00,
2013-05-21 10:57:00,76.3,70.4,30.09,SW,224,8.0,13.0,82,0.00,,---,0.00,VWS V14.00,2013-05-21 14:57:00,
2013-05-21 11:02:00,76.5,71.3,30.09,SSW,197,8.0,12.0,84,0.00,,---,0.00,VWS V14.00,2013-05-21 15:02:00,
2013-05-21 11:07:00,77.1,70.8,30.09,SSW,196,5.0,12.0,81,0.00,,---,0.00,VWS V14.00,2013-05-21 15:07:00,
2013-05-21 11:12:00,77.7,71.0,30.09,SSW,212,5.0,12.0,80,0.00,,---,0.00,VWS V14.00,2013-05-21 15:12:00,
2013-05-21 11:17:00,78.7,70.9,30.09,SSW,208,13.0,13.0,77,0.00,,---,0.00,VWS V14.00,2013-05-21 15:17:00,
2013-05-21 11:22:00,77.8,69.6,30.08,South,187,13.0,14.0,76,0.00,,---,0.00,VWS V14.00,2013-05-21 15:22:00,
2013-05-21 11:27:00,77.6,70.6,30.08,South,182,8.0,14.0,79,0.00,,---,0.00,VWS V14.00,2013-05-21 15:27:00,
2013-05-21 11:32:00,77.5,69.7,30.09,SSW,208,7.0,12.0,77,0.00,,---,0.00,VWS V14.00,2013-05-21 15:32:00,
2013-05-21 11:37:00,77.7,69.2,30.09,South,179,10.0,14.0,75,0.00,,---,0.00,VWS V14.00,2013-05-21 15:37:00,
2013-05-21 11:42:00,77.5,69.0,30.09,SSW,199,6.0,14.0,75,0.00,,---,0.00,VWS V14.00,2013-05-21 15:42:00,
2013-05-21 11:47:00,77.6,69.8,30.09,SSW,208,9.0,14.0,77,0.00,,---,0.00,VWS V14.00,2013-05-21 15:47:00,
2013-05-21 11:52:00,78.2,69.6,30.08,SE,125,8.0,14.0,75,0.00,,---,0.00,VWS V14.00,2013-05-21 15:52:00,
2013-05-21 11:57:00,78.4,68.2,30.08,SSW,194,9.0,16.0,71,0.00,,---,0.00,VWS V14.00,2013-05-21 15:57:00,
2013-05-21 12:02:00,78.6,69.2,30.08,SSE,164,13.0,16.0,73,0.00,,---,0.00,VWS V14.00,2013-05-21 16:02:00,
2013-05-21 12:07:00,78.4,69.0,30.08,SSE,166,8.0,16.0,73,0.00,,---,0.00,VWS V14.00,2013-05-21 16:07:00,
2013-05-21 12:12:00,78.1,69.5,30.08,SSW,204,16.0,17.0,75,0.00,,---,0.00,VWS V14.00,2013-05-21 16:12:00,
2013-05-21 12:17:00,77.4,68.5,30.08,South,189,11.0,18.0,74,0.00,,---,0.00,VWS V14.00,2013-05-21 16:17:00,
2013-05-21 12:22:00,76.8,67.9,30.08,South,189,15.0,18.0,74,0.00,,---,0.00,VWS V14.00,2013-05-21 16:22:00,
2013-05-21 12:27:00,76.7,68.6,30.08,SSW,208,9.0,18.0,76,0.00,,---,0.00,VWS V14.00,2013-05-21 16:27:00,
2013-05-21 12:32:00,78.4,69.8,30.08,South,174,9.0,16.0,75,0.00,,---,0.00,VWS V14.00,2013-05-21 16:32:00,
2013-05-21 12:37:00,77.7,68.8,30.08,South,175,10.0,17.0,74,0.00,,---,0.00,VWS V14.00,2013-05-21 16:37:00,
2013-05-21 12:42:00,76.8,69.4,30.08,South,176,14.0,18.0,78,0.00,,---,0.00,VWS V14.00,2013-05-21 16:42:00,
2013-05-21 12:47:00,76.2,69.2,30.08,SSW,196,10.0,18.0,79,0.00,,---,0.00,VWS V14.00,2013-05-21 16:47:00,
2013-05-21 12:52:00,77.2,69.8,30.07,South,181,12.0,18.0,78,0.00,,---,0.00,VWS V14.00,2013-05-21 16:52:00,
2013-05-21 12:57:00,77.4,70.4,30.07,South,173,10.0,20.0,79,0.00,,---,0.00,VWS V14.00,2013-05-21 16:57:00,
2013-05-21 13:02:00,78.0,70.2,30.07,SSW,196,15.0,17.0,77,0.00,,---,0.00,VWS V14.00,2013-05-21 17:02:00,
2013-05-21 13:07:00,78.2,70.8,30.07,SSE,156,10.0,17.0,78,0.00,,---,0.00,VWS V14.00,2013-05-21 17:07:00,
2013-05-21 13:12:00,78.2,70.4,30.07,South,188,12.0,17.0,77,0.00,,---,0.00,VWS V14.00,2013-05-21 17:12:00,
2013-05-21 13:17:00,78.1,71.4,30.07,SSE,158,13.0,17.0,80,0.00,,---,0.00,VWS V14.00,2013-05-21 17:17:00,
2013-05-21 13:22:00,77.7,70.7,30.07,SSE,153,13.0,17.0,79,0.00,,---,0.00,VWS V14.00,2013-05-21 17:22:00,
2013-05-21 13:27:00,77.1,70.5,30.07,SSE,155,12.0,17.0,80,0.00,,---,0.00,VWS V14.00,2013-05-21 17:27:00,
2013-05-21 13:32:00,77.3,71.4,30.07,South,173,9.0,18.0,82,0.00,,---,0.00,VWS V14.00,2013-05-21 17:32:00,
2013-05-21 13:37:00,77.1,70.5,30.07,South,188,14.0,19.0,80,0.00,,---,0.00,VWS V14.00,2013-05-21 17:37:00,
2013-05-21 13:42:00,77.4,70.8,30.06,SSE,161,10.0,19.0,80,0.00,,---,0.00,VWS V14.00,2013-05-21 17:42:00,
2013-05-21 13:47:00,78.2,71.5,30.06,SSW,211,10.0,19.0,80,0.00,,---,0.00,VWS V14.00,2013-05-21 17:47:00,
2013-05-21 13:52:00,78.6,71.6,30.05,SSE,160,11.0,19.0,79,0.00,,---,0.00,VWS V14.00,2013-05-21 17:52:00,
2013-05-21 13:57:00,78.7,70.9,30.05,SSE,156,10.0,19.0,77,0.00,,---,0.00,VWS V14.00,2013-05-21 17:57:00,
2013-05-21 14:02:00,79.6,72.1,30.05,SSW,206,16.0,16.0,78,0.00,,---,0.00,VWS V14.00,2013-05-21 18:02:00,
2013-05-21 14:07:00,79.6,71.0,30.05,SSE,168,6.0,16.0,75,0.00,,---,0.00,VWS V14.00,2013-05-21 18:07:00,
2013-05-21 14:12:00,79.4,70.8,30.04,SSW,209,11.0,16.0,75,0.00,,---,0.00,VWS V14.00,2013-05-21 18:12:00,
2013-05-21 14:17:00,79.6,70.6,30.05,SSW,192,15.0,18.0,74,0.00,,---,0.00,VWS V14.00,2013-05-21 18:17:00,
2013-05-21 14:22:00,79.4,71.2,30.05,South,189,8.0,20.0,76,0.00,,---,0.00,VWS V14.00,2013-05-21 18:22:00,
2013-05-21 14:27:00,79.9,70.5,30.05,South,181,13.0,20.0,73,0.00,,---,0.00,VWS V14.00,2013-05-21 18:27:00,
2013-05-21 14:32:00,79.7,70.3,30.04,South,172,11.0,19.0,73,0.00,,---,0.00,VWS V14.00,2013-05-21 18:32:00,
2013-05-21 14:37:00,79.3,70.7,30.04,SSW,204,13.0,20.0,75,0.00,,---,0.00,VWS V14.00,2013-05-21 18:37:00,
2013-05-21 14:42:00,79.7,71.9,30.04,South,184,18.0,20.0,77,0.00,,---,0.00,VWS V14.00,2013-05-21 18:42:00,
2013-05-21 14:47:00,79.3,70.7,30.04,South,177,16.0,20.0,75,0.00,,---,0.00,VWS V14.00,2013-05-21 18:47:00,
2013-05-21 14:52:00,78.9,70.3,30.04,South,180,19.0,20.0,75,0.00,,---,0.00,VWS V14.00,2013-05-21 18:52:00,
2013-05-21 14:57:00,78.5,70.7,30.04,SSW,202,11.0,20.0,77,0.00,,---,0.00,VWS V14.00,2013-05-21 18:57:00,
2013-05-21 15:02:00,79.4,70.8,30.04,SSW,195,11.0,19.0,75,0.00,,---,0.00,VWS V14.00,2013-05-21 19:02:00,
2013-05-21 15:07:00,79.5,70.1,30.03,SSE,162,9.0,19.0,73,0.00,,---,0.00,VWS V14.00,2013-05-21 19:07:00,
2013-05-21 15:12:00,80.0,71.4,30.03,SSE,152,7.0,19.0,75,0.00,,---,0.00,VWS V14.00,2013-05-21 19:12:00,
2013-05-21 15:17:00,79.7,69.9,30.03,SSE,155,14.0,19.0,72,0.00,,---,0.00,VWS V14.00,2013-05-21 19:17:00,
2013-05-21 15:22:00,79.3,69.9,30.03,SSE,162,10.0,19.0,73,0.00,,---,0.00,VWS V14.00,2013-05-21 19:22:00,
2013-05-21 15:27:00,78.4,69.4,30.03,South,186,14.0,19.0,74,0.00,,---,0.00,VWS V14.00,2013-05-21 19:27:00,
2013-05-21 15:32:00,78.3,69.7,30.03,SSE,151,12.0,17.0,75,0.00,,---,0.00,VWS V14.00,2013-05-21 19:32:00,
2013-05-21 15:37:00,77.8,69.6,30.02,SSE,153,10.0,18.0,76,0.00,,---,0.00,VWS V14.00,2013-05-21 19:37:00,
2013-05-21 15:43:00,77.0,69.2,30.02,SE,145,13.0,18.0,77,0.00,,---,0.00,VWS V14.00,2013-05-21 19:43:00,
2013-05-21 15:48:00,76.4,69.4,30.02,SSE,164,8.0,18.0,79,0.00,,---,0.00,VWS V14.00,2013-05-21 19:48:00,
2013-05-21 15:53:00,76.5,69.9,30.02,South,170,8.0,18.0,80,0.00,,---,0.00,VWS V14.00,2013-05-21 19:53:00,
2013-05-21 15:57:00,76.6,69.6,30.02,SSE,161,13.0,18.0,79,0.00,,---,0.00,VWS V14.00,2013-05-21 19:57:00,
2013-05-21 16:03:00,76.9,69.5,30.01,SSE,150,7.0,17.0,78,0.00,,---,0.00,VWS V14.00,2013-05-21 20:03:00,
2013-05-21 16:08:00,76.9,69.2,30.02,SSE,162,11.0,18.0,77,0.00,,---,0.00,VWS V14.00,2013-05-21 20:08:00,
2013-05-21 16:13:00,76.5,68.8,30.02,SSE,158,11.0,18.0,77,0.00,,---,0.00,VWS V14.00,2013-05-21 20:13:00,
2013-05-21 16:18:00,76.6,69.2,30.02,South,175,11.0,18.0,78,0.00,,---,0.00,VWS V14.00,2013-05-21 20:18:00,
2013-05-21 16:23:00,76.3,69.3,30.02,South,183,10.0,18.0,79,0.00,,---,0.00,VWS V14.00,2013-05-21 20:23:00,
2013-05-21 16:28:00,75.6,69.4,30.02,South,171,8.0,18.0,81,0.00,,---,0.00,VWS V14.00,2013-05-21 20:28:00,
2013-05-21 16:33:00,75.6,69.7,30.02,SSE,158,8.0,15.0,82,0.00,,---,0.00,VWS V14.00,2013-05-21 20:33:00,
2013-05-21 16:38:00,75.8,69.2,30.02,South,184,13.0,15.0,80,0.00,,---,0.00,VWS V14.00,2013-05-21 20:38:00,
2013-05-21 16:43:00,75.7,69.1,30.02,SSE,164,8.0,15.0,80,0.00,,---,0.00,VWS V14.00,2013-05-21 20:43:00,
2013-05-21 16:48:00,75.6,69.4,30.02,South,183,8.0,15.0,81,0.00,,---,0.00,VWS V14.00,2013-05-21 20:48:00,
2013-05-21 16:53:00,75.4,69.2,30.02,SSE,148,11.0,15.0,81,0.00,,---,0.00,VWS V14.00,2013-05-21 20:53:00,
2013-05-21 16:58:00,75.0,68.8,30.02,SSE,158,14.0,14.0,81,0.00,,---,0.00,VWS V14.00,2013-05-21 20:58:00,
2013-05-21 17:03:00,74.6,69.1,30.02,SSE,168,10.0,15.0,83,0.00,,---,0.00,VWS V14.00,2013-05-21 21:03:00,
2013-05-21 17:08:00,74.6,68.8,30.02,South,173,10.0,15.0,82,0.00,,---,0.00,VWS V14.00,2013-05-21 21:08:00,
2013-05-21 17:13:00,74.6,68.8,30.02,South,172,7.0,16.0,82,0.00,,---,0.00,VWS V14.00,2013-05-21 21:13:00,
2013-05-21 17:18:00,74.5,68.7,30.02,SSE,147,9.0,16.0,82,0.00,,---,0.00,VWS V14.00,2013-05-21 21:18:00,
2013-05-21 17:23:00,74.3,68.8,30.02,South,172,7.0,16.0,83,0.00,,---,0.00,VWS V14.00,2013-05-21 21:23:00,
2013-05-21 17:28:00,73.9,68.8,30.02,SSE,168,10.0,12.0,84,0.00,,---,0.00,VWS V14.00,2013-05-21 21:28:00,
2013-05-21 17:33:00,73.7,68.6,30.02,SSE,162,7.0,13.0,84,0.00,,---,0.00,VWS V14.00,2013-05-21 21:33:00,
2013-05-21 17:38:00,73.7,68.6,30.02,South,183,8.0,13.0,84,0.00,,---,0.00,VWS V14.00,2013-05-21 21:38:00,
2013-05-21 17:43:00,73.6,68.1,30.02,South,180,11.0,15.0,83,0.00,,---,0.00,VWS V14.00,2013-05-21 21:43:00,
2013-05-21 17:48:00,73.7,67.9,30.02,South,171,10.0,15.0,82,0.00,,---,0.00,VWS V14.00,2013-05-21 21:48:00,
2013-05-21 17:53:00,73.7,67.9,30.02,South,172,9.0,15.0,82,0.00,,---,0.00,VWS V14.00,2013-05-21 21:53:00,
2013-05-21 17:58:00,73.8,68.0,30.02,SSW,193,10.0,10.0,82,0.00,,---,0.00,VWS V14.00,2013-05-21 21:58:00,
2013-05-21 18:03:00,73.7,68.2,30.02,South,183,9.0,13.0,83,0.00,,---,0.00,VWS V14.00,2013-05-21 22:03:00,
2013-05-21 18:08:00,73.5,68.0,30.02,South,172,7.0,13.0,83,0.00,,---,0.00,VWS V14.00,2013-05-21 22:08:00,
2013-05-21 18:13:00,73.5,68.4,30.02,South,180,9.0,13.0,84,0.00,,---,0.00,VWS V14.00,2013-05-21 22:13:00,
2013-05-21 18:18:00,73.3,68.5,30.02,South,179,8.0,14.0,85,0.00,,---,0.00,VWS V14.00,2013-05-21 22:18:00,
2013-05-21 18:23:00,73.1,68.7,30.02,SSE,150,9.0,14.0,86,0.00,,---,0.00,VWS V14.00,2013-05-21 22:23:00,
2013-05-21 18:28:00,72.9,68.8,30.03,SSE,165,6.0,7.0,87,0.00,,---,0.00,VWS V14.00,2013-05-21 22:28:00,
2013-05-21 18:33:00,72.8,68.7,30.03,SSW,197,11.0,12.0,87,0.00,,---,0.00,VWS V14.00,2013-05-21 22:33:00,
2013-05-21 18:38:00,72.7,68.6,30.02,South,189,7.0,12.0,87,0.00,,---,0.00,VWS V14.00,2013-05-21 22:38:00,
2013-05-21 18:43:00,72.6,68.5,30.03,South,187,9.0,12.0,87,0.00,,---,0.00,VWS V14.00,2013-05-21 22:43:00,
2013-05-21 18:48:00,72.6,68.5,30.03,South,169,5.0,12.0,87,0.00,,---,0.00,VWS V14.00,2013-05-21 22:48:00,
2013-05-21 18:53:00,72.5,68.8,30.03,South,171,5.0,12.0,88,0.00,,---,0.00,VWS V14.00,2013-05-21 22:53:00,
2013-05-21 18:58:00,72.3,68.6,30.03,South,170,8.0,9.0,88,0.00,,---,0.00,VWS V14.00,2013-05-21 22:58:00,
2013-05-21 19:03:00,72.1,68.3,30.03,SSW,199,12.0,12.0,88,0.00,,---,0.00,VWS V14.00,2013-05-21 23:03:00,
2013-05-21 19:08:00,71.9,68.5,30.03,South,169,7.0,12.0,89,0.00,,---,0.00,VWS V14.00,2013-05-21 23:08:00,
2013-05-21 19:13:00,71.7,68.3,30.03,SSE,164,8.0,13.0,89,0.00,,---,0.00,VWS V14.00,2013-05-21 23:13:00,
2013-05-21 19:18:00,71.6,68.2,30.02,South,176,10.0,13.0,89,0.00,,---,0.00,VWS V14.00,2013-05-21 23:18:00,
2013-05-21 19:23:00,71.5,68.4,30.02,SSE,166,7.0,13.0,90,0.00,,---,0.00,VWS V14.00,2013-05-21 23:23:00,
2013-05-21 19:28:00,71.5,68.4,30.02,South,171,7.0,9.0,90,0.00,,---,0.00,VWS V14.00,2013-05-21 23:28:00,
2013-05-21 19:33:00,71.3,68.5,30.02,SSW,197,10.0,13.0,91,0.00,,---,0.00,VWS V14.00,2013-05-21 23:33:00,
2013-05-21 19:38:00,71.3,68.5,30.02,SSE,168,9.0,15.0,91,0.00,,---,0.00,VWS V14.00,2013-05-21 23:38:00,
2013-05-21 19:43:00,71.3,68.5,30.02,SSE,154,8.0,15.0,91,0.00,,---,0.00,VWS V14.00,2013-05-21 23:43:00,
2013-05-21 19:48:00,71.2,68.4,30.02,SSE,160,7.0,15.0,91,0.00,,---,0.00,VWS V14.00,2013-05-21 23:48:00,
2013-05-21 19:53:00,71.1,68.3,30.02,South,191,8.0,15.0,91,0.00,,---,0.00,VWS V14.00,2013-05-21 23:53:00,
2013-05-21 19:58:00,71.0,68.2,30.02,South,170,7.0,7.0,91,0.00,,---,0.00,VWS V14.00,2013-05-21 23:58:00,
2013-05-21 20:03:00,71.0,68.2,30.01,South,183,6.0,14.0,91,0.00,,---,0.00,VWS V14.00,2013-05-22 00:03:00,
2013-05-21 20:08:00,70.9,68.2,30.01,South,172,7.0,14.0,91,0.00,,---,0.00,VWS V14.00,2013-05-22 00:08:00,
2013-05-21 20:13:00,70.8,68.1,30.01,SSW,197,7.0,14.0,91,0.00,,---,0.00,VWS V14.00,2013-05-22 00:13:00,
2013-05-21 20:18:00,70.6,67.8,30.01,South,187,11.0,14.0,91,0.00,,---,0.00,VWS V14.00,2013-05-22 00:18:00,
2013-05-21 20:23:00,70.6,67.8,30.01,South,183,9.0,14.0,91,0.00,,---,0.00,VWS V14.00,2013-05-22 00:23:00,
2013-05-21 20:28:00,70.5,67.8,30.01,South,171,6.0,9.0,91,0.00,,---,0.00,VWS V14.00,2013-05-22 00:28:00,
2013-05-21 20:33:00,70.4,67.7,30.00,South,179,7.0,12.0,91,0.00,,---,0.00,VWS V14.00,2013-05-22 00:33:00,
2013-05-21 20:38:00,70.4,67.7,30.00,SSE,154,10.0,12.0,91,0.00,,---,0.00,VWS V14.00,2013-05-22 00:38:00,
2013-05-21 20:43:00,70.4,67.7,30.01,SSE,164,10.0,12.0,91,0.00,,---,0.00,VWS V14.00,2013-05-22 00:43:00,
2013-05-21 20:48:00,70.4,67.7,30.01,SSW,202,8.0,14.0,91,0.00,,---,0.00,VWS V14.00,2013-05-22 00:48:00,
2013-05-21 20:53:00,70.4,68.0,30.00,SSE,168,8.0,14.0,92,0.00,,---,0.00,VWS V14.00,2013-05-22 00:53:00,
2013-05-21 20:58:00,70.3,67.9,30.01,SSE,160,8.0,9.0,92,0.00,,---,0.00,VWS V14.00,2013-05-22 00:58:00,
2013-05-21 21:03:00,70.3,67.9,30.00,SSE,156,14.0,14.0,92,0.00,,---,0.00,VWS V14.00,2013-05-22 01:03:00,
2013-05-21 21:08:00,70.3,67.9,30.00,SSE,155,7.0,14.0,92,0.00,,---,0.00,VWS V14.00,2013-05-22 01:08:00,
2013-05-21 21:13:00,70.3,67.9,30.01,SSE,160,9.0,14.0,92,0.00,,---,0.00,VWS V14.00,2013-05-22 01:13:00,
2013-05-21 21:18:00,70.3,67.9,30.01,South,182,6.0,14.0,92,0.00,,---,0.00,VWS V14.00,2013-05-22 01:18:00,
2013-05-21 21:23:00,70.2,68.1,30.01,SSE,163,7.0,14.0,93,0.00,,---,0.00,VWS V14.00,2013-05-22 01:23:00,
2013-05-21 21:28:00,70.2,68.1,30.01,SSW,197,6.0,7.0,93,0.00,,---,0.00,VWS V14.00,2013-05-22 01:28:00,
2013-05-21 21:33:00,70.1,68.0,30.02,South,171,6.0,10.0,93,0.00,,---,0.00,VWS V14.00,2013-05-22 01:33:00,
2013-05-21 21:38:00,70.1,68.0,30.02,SSW,195,6.0,10.0,93,0.00,,---,0.00,VWS V14.00,2013-05-22 01:38:00,
2013-05-21 21:43:00,70.0,67.9,30.02,South,182,6.0,10.0,93,0.00,,---,0.00,VWS V14.00,2013-05-22 01:43:00,
2013-05-21 21:48:00,69.9,67.8,30.02,South,186,5.0,10.0,93,0.00,,---,0.00,VWS V14.00,2013-05-22 01:48:00,
2013-05-21 21:53:00,69.7,67.6,30.03,SSW,212,4.0,10.0,93,0.00,,---,0.00,VWS V14.00,2013-05-22 01:53:00,
2013-05-21 21:58:00,69.7,67.9,30.03,SSW,197,4.0,7.0,94,0.00,,---,0.00,VWS V14.00,2013-05-22 01:58:00,
2013-05-21 22:03:00,69.6,67.8,30.03,South,188,6.0,7.0,94,0.00,,---,0.00,VWS V14.00,2013-05-22 02:03:00,
2013-05-21 22:08:00,69.6,67.8,30.03,South,189,5.0,7.0,94,0.00,,---,0.00,VWS V14.00,2013-05-22 02:08:00,
2013-05-21 22:13:00,69.6,67.8,30.03,South,176,4.0,7.0,94,0.00,,---,0.00,VWS V14.00,2013-05-22 02:13:00,
2013-05-21 22:18:00,69.5,67.7,30.03,South,189,2.0,7.0,94,0.00,,---,0.00,VWS V14.00,2013-05-22 02:18:00,
2013-05-21 22:23:00,69.5,67.7,30.04,South,172,3.0,8.0,94,0.00,,---,0.00,VWS V14.00,2013-05-22 02:23:00,
2013-05-21 22:28:00,69.4,67.6,30.03,South,183,6.0,7.0,94,0.00,,---,0.00,VWS V14.00,2013-05-22 02:28:00,
2013-05-21 22:33:00,69.5,67.7,30.04,South,177,3.0,7.0,94,0.00,,---,0.00,VWS V14.00,2013-05-22 02:33:00,
2013-05-21 22:38:00,69.4,67.6,30.04,SSE,158,5.0,8.0,94,0.00,,---,0.00,VWS V14.00,2013-05-22 02:38:00,
2013-05-21 22:43:00,69.4,67.6,30.03,South,186,3.0,8.0,94,0.00,,---,0.00,VWS V14.00,2013-05-22 02:43:00,
2013-05-21 22:48:00,69.4,67.6,30.04,South,172,4.0,8.0,94,0.00,,---,0.00,VWS V14.00,2013-05-22 02:48:00,
2013-05-21 22:53:00,69.4,67.6,30.03,South,178,6.0,9.0,94,0.00,,---,0.00,VWS V14.00,2013-05-22 02:53:00,
2013-05-21 22:58:00,69.4,67.6,30.03,South,187,5.0,7.0,94,0.00,,---,0.00,VWS V14.00,2013-05-22 02:58:00,
2013-05-21 23:03:00,69.4,67.6,30.03,South,175,6.0,10.0,94,0.00,,---,0.00,VWS V14.00,2013-05-22 03:03:00,
2013-05-21 23:08:00,69.4,67.6,30.04,South,177,5.0,10.0,94,0.00,,---,0.00,VWS V14.00,2013-05-22 03:08:00,
2013-05-21 23:13:00,69.4,67.6,30.04,South,185,6.0,10.0,94,0.00,,---,0.00,VWS V14.00,2013-05-22 03:13:00,
2013-05-21 23:18:00,69.4,67.6,30.04,South,175,3.0,10.0,94,0.00,,---,0.00,VWS V14.00,2013-05-22 03:18:00,
2013-05-21 23:23:00,69.4,67.6,30.04,South,180,7.0,10.0,94,0.00,,---,0.00,VWS V14.00,2013-05-22 03:23:00,
2013-05-21 23:28:00,69.4,67.6,30.04,South,177,7.0,7.0,94,0.00,,---,0.00,VWS V14.00,2013-05-22 03:28:00,
2013-05-21 23:33:00,69.5,67.7,30.04,South,180,6.0,9.0,94,0.00,,---,0.00,VWS V14.00,2013-05-22 03:33:00,
2013-05-21 23:38:00,69.5,68.0,30.03,SSE,162,5.0,11.0,95,0.00,,---,0.00,VWS V14.00,2013-05-22 03:38:00,
2013-05-21 23:43:00,69.5,68.0,30.03,SSE,163,10.0,12.0,95,0.00,,---,0.00,VWS V14.00,2013-05-22 03:43:00,
2013-05-21 23:48:00,69.7,68.2,30.03,South,181,7.0,13.0,95,0.00,,---,0.00,VWS V14.00,2013-05-22 03:48:00,
2013-05-21 23:53:00,69.8,68.0,30.03,SSE,160,9.0,13.0,94,0.00,,---,0.00,VWS V14.00,2013-05-22 03:53:00,
2013-05-21 23:58:00,69.9,68.1,30.03,South,189,11.0,11.0,94,0.00,,---,0.00,VWS V14.00,2013-05-22 03:58:00,